TimeEDT,TemperatureF,Dew PointF,Humidity,Sea Level PressureIn,VisibilityMPH,Wind Direction,Wind SpeedMPH,Gust SpeedMPH,PrecipitationIn,Events,Conditions,WindDirDegrees,DateUTC
12:15 AM,54.0,50.5,88,30.28,10.0,Calm,Calm,-,N/A,,Clear,0,2012-10-05 04:15:00
12:35 AM,53.8,50.4,88,30.28,10.0,Calm,Calm,-,N/A,,Clear,0,2012-10-05 04:35:00
12:55 AM,53.2,50.2,89,30.28,10.0,Calm,Calm,-,N/A,,Clear,0,2012-10-05 04:55:00
1:35 AM,52.7,50.0,91,30.27,7.0,Calm,Calm,-,N/A,,Clear,0,2012-10-05 05:35:00
1:55 AM,53.4,50.4,89,30.27,10.0,Calm,Calm,-,N/A,,Clear,0,2012-10-05 05:55:00
2:15 AM,53.2,50.9,92,30.27,5.0,Calm,Calm,-,N/A,,Clear,0,2012-10-05 06:15:00
2:35 AM,52.5,50.2,92,30.27,5.0,Calm,Calm,-,N/A,,Clear,0,2012-10-05 06:35:00
2:55 AM,52.2,49.8,92,30.27,3.0,Calm,Calm,-,N/A,,Clear,0,2012-10-05 06:55:00
3:15 AM,52.0,49.8,92,30.26,5.0,Calm,Calm,-,N/A,,Clear,0,2012-10-05 07:15:00
3:35 AM,51.8,49.6,92,30.26,4.0,Calm,Calm,-,N/A,,Clear,0,2012-10-05 07:35:00
3:55 AM,52.0,50.0,93,30.26,5.0,Calm,Calm,-,N/A,,Clear,0,2012-10-05 07:55:00
4:15 AM,52.0,50.2,94,30.25,4.0,Calm,Calm,-,N/A,,Clear,0,2012-10-05 08:15:00
4:35 AM,52.0,50.2,94,30.25,4.0,Calm,Calm,-,N/A,,Clear,0,2012-10-05 08:35:00
5:15 AM,51.4,49.6,94,30.25,5.0,Calm,Calm,-,N/A,,Clear,0,2012-10-05 09:15:00
5:35 AM,51.1,49.1,93,30.25,4.0,Calm,Calm,-,N/A,,Clear,0,2012-10-05 09:35:00
5:55 AM,51.3,49.3,93,30.25,7.0,Calm,Calm,-,N/A,,Clear,0,2012-10-05 09:55:00
6:15 AM,51.1,49.1,93,30.26,4.0,Calm,Calm,-,N/A,,Clear,0,2012-10-05 10:15:00
6:35 AM,50.9,48.9,93,30.26,4.0,Calm,Calm,-,N/A,,Clear,0,2012-10-05 10:35:00
6:55 AM,50.4,48.4,93,30.26,5.0,Calm,Calm,-,N/A,,Clear,0,2012-10-05 10:55:00
7:15 AM,50.4,48.4,93,30.25,3.0,Calm,Calm,-,N/A,,Scattered Clouds,0,2012-10-05 11:15:00
7:35 AM,49.6,47.8,94,30.25,3.0,Calm,Calm,-,N/A,,Clear,0,2012-10-05 11:35:00
7:55 AM,49.8,48.0,94,30.25,4.0,Calm,Calm,-,N/A,,Clear,0,2012-10-05 11:55:00
8:15 AM,50.5,49.1,95,30.26,3.0,Calm,Calm,-,N/A,,Clear,0,2012-10-05 12:15:00
8:35 AM,52.9,51.4,95,30.26,5.0,ESE,3.5,-,N/A,,Clear,110,2012-10-05 12:35:00
8:55 AM,54.3,52.7,94,30.26,7.0,East,3.5,-,N/A,,Clear,100,2012-10-05 12:55:00
9:15 AM,56.5,52.0,85,30.26,10.0,Calm,Calm,-,N/A,,Clear,0,2012-10-05 13:15:00
9:35 AM,58.1,52.2,81,30.26,10.0,East,3.5,-,N/A,,Clear,80,2012-10-05 13:35:00
9:55 AM,59.7,52.7,78,30.26,10.0,Calm,Calm,-,N/A,,Clear,0,2012-10-05 13:55:00
10:15 AM,61.7,53.2,74,30.26,10.0,Calm,Calm,-,N/A,,Clear,0,2012-10-05 14:15:00
10:35 AM,64.6,53.1,66,30.25,10.0,Calm,Calm,-,N/A,,Clear,0,2012-10-05 14:35:00
10:55 AM,64.8,52.0,63,30.25,10.0,Calm,Calm,-,N/A,,Clear,0,2012-10-05 14:55:00
11:15 AM,66.2,52.2,61,30.24,10.0,Calm,Calm,-,N/A,,Clear,0,2012-10-05 15:15:00
11:35 AM,68.2,52.2,56,30.23,10.0,SW,4.6,-,N/A,,Clear,220,2012-10-05 15:35:00
11:55 AM,69.1,52.7,56,30.23,10.0,Calm,Calm,-,N/A,,Clear,0,2012-10-05 15:55:00
12:15 PM,69.8,52.7,54,30.22,10.0,Calm,Calm,-,N/A,,Clear,0,2012-10-05 16:15:00
12:35 PM,70.7,52.3,52,30.20,10.0,WSW,6.9,-,N/A,,Clear,240,2012-10-05 16:35:00
12:55 PM,71.2,50.7,48,30.20,10.0,North,5.8,-,N/A,,Clear,350,2012-10-05 16:55:00
1:15 PM,71.8,50.4,47,30.19,10.0,WNW,6.9,-,N/A,,Clear,290,2012-10-05 17:15:00
1:35 PM,72.1,49.8,45,30.18,10.0,Calm,Calm,-,N/A,,Clear,0,2012-10-05 17:35:00
1:55 PM,72.5,49.6,44,30.17,10.0,WNW,4.6,-,N/A,,Clear,300,2012-10-05 17:55:00
2:15 PM,74.3,49.8,42,30.16,10.0,WSW,6.9,-,N/A,,Clear,240,2012-10-05 18:15:00
2:35 PM,73.8,48.6,41,30.15,10.0,Calm,Calm,-,N/A,,Clear,0,2012-10-05 18:35:00
2:55 PM,74.5,48.9,40,30.14,10.0,West,5.8,-,N/A,,Clear,270,2012-10-05 18:55:00
3:15 PM,75.2,48.9,39,30.14,10.0,WNW,6.9,-,N/A,,Clear,300,2012-10-05 19:15:00
3:35 PM,74.7,45.7,36,30.12,10.0,NW,5.8,-,N/A,,Clear,320,2012-10-05 19:35:00
3:55 PM,75.7,45.7,34,30.12,10.0,West,6.9,-,N/A,,Clear,260,2012-10-05 19:55:00
4:15 PM,75.6,46.2,35,30.11,10.0,NW,4.6,-,N/A,,Clear,320,2012-10-05 20:15:00
4:35 PM,74.7,45.1,35,30.10,10.0,NW,5.8,-,N/A,,Clear,320,2012-10-05 20:35:00
4:55 PM,75.2,46.6,36,30.09,10.0,WNW,5.8,-,N/A,,Clear,290,2012-10-05 20:55:00
5:15 PM,74.5,45.5,36,30.08,10.0,NW,4.6,-,N/A,,Clear,310,2012-10-05 21:15:00
5:35 PM,74.3,45.1,35,30.08,10.0,NNW,4.6,-,N/A,,Clear,330,2012-10-05 21:35:00
5:55 PM,73.8,44.1,34,30.08,10.0,WNW,4.6,-,N/A,,Clear,290,2012-10-05 21:55:00
6:15 PM,73.4,45.9,37,30.08,10.0,WNW,3.5,-,N/A,,Clear,300,2012-10-05 22:15:00
6:35 PM,72.1,46.2,40,30.09,10.0,WNW,3.5,-,N/A,,Clear,300,2012-10-05 22:35:00
7:15 PM,68.2,50.2,53,30.09,10.0,NW,3.5,-,N/A,,Clear,320,2012-10-05 23:15:00
7:35 PM,65.5,50.2,58,30.08,10.0,Calm,Calm,-,N/A,,Clear,0,2012-10-05 23:35:00
7:55 PM,64.0,50.9,62,30.08,10.0,Calm,Calm,-,N/A,,Clear,0,2012-10-05 23:55:00
8:15 PM,62.1,51.4,68,30.07,10.0,Calm,Calm,-,N/A,,Clear,0,2012-10-06 00:15:00
8:35 PM,59.4,52.2,77,30.07,10.0,Calm,Calm,-,N/A,,Clear,0,2012-10-06 00:35:00
8:55 PM,59.9,51.6,74,30.07,10.0,Calm,Calm,-,N/A,,Clear,0,2012-10-06 00:55:00
9:15 PM,58.3,51.8,79,30.07,10.0,NNW,3.5,-,N/A,,Clear,340,2012-10-06 01:15:00
9:35 PM,58.3,51.8,79,30.08,10.0,Calm,Calm,-,N/A,,Clear,0,2012-10-06 01:35:00
9:55 PM,57.2,51.8,82,30.08,10.0,Calm,Calm,-,N/A,,Clear,0,2012-10-06 01:55:00
10:15 PM,57.2,51.3,81,30.08,10.0,Calm,Calm,-,N/A,,Scattered Clouds,0,2012-10-06 02:15:00
10:35 PM,56.7,51.3,82,30.08,10.0,Calm,Calm,-,N/A,,Mostly Cloudy,0,2012-10-06 02:35:00
11:15 PM,57.0,51.4,82,30.07,10.0,Calm,Calm,-,N/A,,Mostly Cloudy,0,2012-10-06 03:15:00
11:35 PM,56.8,52.0,84,30.07,10.0,Calm,Calm,-,N/A,,Clear,0,2012-10-06 03:35:00
11:55 PM,56.1,51.3,84,30.07,10.0,Calm,Calm,-,N/A,,Clear,0,2012-10-06 03:55:00